[[{"header":{"parameterUnit":"m.s-1","parameterCategory":1,"la1":30.2991,"la2":30.254,"lo1":-89.0895,"lo2":-89.0444,"dy":0.0017,"dx":0.0017,"nx":28,"ny":28,"refTime":"2026-02-04T09:00:00:Z","depth":0,"parameterNumber":2,"parameterNumberName":"U-component_of_WINDS"},"data":[0,0,0,0,0,0,0,0,0,0,0,0,0,0,0,0,0,0,0,0,0,0,0,0,0,0,0,0,0,0,0,0,0,0,0,0,0,0,0,0,0,0,0,0,0,0,0,0,0,0,0,0,0,0,0,0,0,0,2.9454,2.9455,0,2.9567,2.9569,2.957,2.9514,2.9511,2.9508,2.9506,2.9625,2.963,2.9636,0,0,0,0,0,0,0,0,0,0,0,0,0,2.9195,2.92,2.9454,2.9456,2.9457,2.9567,2.9569,2.957,2.9515,2.9511,2.9508,2.9504,2.9623,2.963,2.9637,0,0,0,0,0,0,0,0,0,0,0,0,0,2.9308,2.9201,2.9454,2.9443,2.9443,2.9567,2.9569,2.9571,2.9516,2.9511,2.9507,2.9503,2.962,2.9629,2.9638,2.978,0,0,2.9665,2.9669,0,0,0,0,0,0,0,0,2.9301,2.9317,2.9443,2.9444,2.9444,2.9522,2.9521,2.9641,2.9517,2.9488,2.9506,2.9501,2.9594,2.9605,2.9636,2.9786,2.9791,2.9666,2.9671,2.9675,2.9677,0,0,0,0,0,0,0,2.9293,2.9312,2.9499,2.9445,2.9445,2.9433,2.9444,2.9543,2.9565,2.949,2.9486,2.95,2.9594,2.9628,2.9638,2.9793,2.9665,2.9673,2.9679,2.9682,3.0068,3.0073,0,0,0,0,0,0,2.9286,2.9306,2.9495,2.9502,2.936,2.9441,2.9454,2.9502,2.9563,2.9568,2.9504,2.9497,2.9615,2.9628,2.9642,2.9815,2.9675,2.9683,2.9688,3.0063,3.0069,3.0074,0,0,0,0,0,0,2.928,2.9303,2.9491,2.9403,2.9426,2.9451,2.9504,2.9506,2.954,2.9574,2.9578,2.9534,2.9612,2.963,2.9747,2.9818,2.9687,2.9695,3.0057,3.0065,3.0072,3.0161,0,0,0,0,0,0,2.9273,2.9301,2.9355,2.9405,2.9431,2.9592,2.9509,2.9511,2.9555,2.9547,2.9603,2.9608,2.961,2.9734,2.9756,2.9828,2.9702,3.0051,3.0061,3.0069,3.0152,3.017,3.0186,0,0,0,0,0,2.9264,2.9376,2.9358,2.9381,2.9498,2.9597,2.9612,2.961,2.9561,2.9616,2.9638,2.9607,2.9807,2.9746,2.977,2.9847,3.0047,3.0058,3.0069,3.0144,3.0167,3.0186,0,0,0,0,0,0,2.9334,2.9382,2.9363,2.9493,2.9541,2.9587,2.9656,2.9634,2.9698,2.9688,2.9684,2.9697,2.9819,2.9844,2.9776,2.9989,2.9919,2.9936,2.9968,2.999,3.0007,2.9999,2.9709,0,0,0,0,0,2.9365,2.944,2.9478,2.959,2.9614,2.9631,2.9674,2.9669,2.9718,2.9739,2.9769,2.982,2.9894,2.9943,3.0014,3.0155,3.0167,3.0219,3.0237,3.0251,3.0265,3.0344,3.0368,3.0111,3.0111,3.0111,0,0,2.9429,2.9464,2.9512,2.9605,2.9641,2.972,2.9649,2.9735,2.9794,2.9752,2.9865,2.9889,2.9945,3.0076,3.0134,3.01,3.0339,3.0265,3.0276,3.0283,3.0358,3.0382,3.0404,3.0119,3.0117,3.0116,0,0,2.9587,2.962,2.9718,2.9756,2.9812,2.9823,2.9846,2.9896,2.991,3.0023,2.9993,3.0064,3.0192,3.0234,3.0272,3.0448,3.0422,3.047,3.0562,3.0639,3.0659,3.0677,3.0741,3.0764,3.0485,3.0485,3.0485,0,2.966,2.9777,2.9771,2.9861,2.9903,2.9868,2.9968,3.0006,3.0082,3.0113,3.0074,3.0234,3.027,3.041,3.0453,3.0484,3.0513,3.0464,3.0656,3.0674,3.0691,3.0752,3.0776,3.0491,3.049,3.0489,3.0489,0,2.9865,2.9947,3.0019,3.0094,3.0144,3.0238,3.0249,3.0301,3.0292,3.0307,3.0423,3.0464,3.0543,3.0576,3.0568,3.0716,3.0694,3.0656,3.0586,3.0721,3.0779,3.0802,3.0499,3.0497,3.0495,3.0494,0,0,3.0071,3.0141,3.0168,3.0202,3.0262,3.0325,3.0419,3.0495,3.0541,3.0595,3.0675,3.0785,3.075,3.0793,3.0789,3.0857,3.0996,3.081,3.0812,3.0845,3.1164,3.1194,3.1221,3.0979,3.0983,3.0987,3.116,0,3.0234,3.0396,3.0395,3.0546,3.0623,3.0591,3.0673,3.0719,3.0736,3.0805,3.0824,3.0903,3.085,3.0876,3.0941,3.0965,3.106,3.0952,3.1055,3.1058,3.1043,3.1251,3.1282,3.1444,3.1183,3.1186,3.1189,0,3.0446,3.0507,3.0666,3.0716,3.0748,3.0821,3.0892,3.0957,3.101,3.1018,3.1067,3.1053,3.115,3.1077,3.1212,3.1138,3.118,3.1199,3.1205,3.1216,3.1133,3.1269,3.1495,3.152,3.1224,3.1222,3.1219,0,3.0582,3.0704,3.0815,3.0845,3.0905,3.0958,3.0986,3.1034,3.1081,3.1143,3.1174,3.1247,3.1288,3.1345,3.1352,3.1298,3.1489,3.1415,3.15,3.15,3.1543,3.154,3.1781,3.1567,3.1567,3.1567,3.1566,0,3.0766,3.0865,3.0877,3.0946,3.1056,3.1054,3.1164,3.1187,3.1231,3.1305,3.1282,3.1352,3.1356,3.1429,3.1435,3.1547,3.1565,3.1576,3.1577,3.1579,3.1578,3.1607,3.1597,3.1573,3.1572,3.157,3.1569,0,3.0937,3.0949,3.1068,3.1116,3.113,3.121,3.1251,3.1318,3.1333,3.1427,3.1449,3.1473,3.1557,3.157,3.1669,3.1673,3.1808,3.1797,3.179,3.1789,3.1874,3.1867,3.2143,3.218,3.1941,3.1943,3.1945,0,3.1054,3.1129,3.1185,3.1232,3.1263,3.1339,3.1387,3.1388,3.1439,3.1505,3.1564,3.1646,3.1712,3.1849,3.1876,3.1952,3.1943,3.2035,3.1955,3.1955,3.1947,3.1943,3.1952,3.2051,3.2054,3.2056,3.2057,0,3.1261,3.1263,3.1332,3.1404,3.1461,3.1517,3.1571,3.1611,3.162,3.1678,3.1764,3.1815,3.1916,3.1998,3.2074,3.2104,3.2084,3.2082,3.2106,3.211,3.2104,3.211,3.1834,3.2076,3.2074,3.2073,3.2072,3.2071,3.141,3.1476,3.1526,3.1603,3.1644,3.1694,3.1759,3.1783,3.1854,3.1936,3.1932,3.2027,3.208,3.2179,3.2215,3.2291,3.2261,3.2295,3.2304,3.2313,3.2322,3.2091,3.2304,3.2304,3.2303,3.2303,3.2302,0,3.1617,3.1647,3.1719,3.1794,3.1856,3.1829,3.1888,3.1942,3.2025,3.2075,3.214,3.224,3.232,3.2354,3.2433,3.2487,3.248,3.2508,3.2505,3.2513,3.2343,3.2315,3.2513,3.2513,3.2513,3.2513,3.2513,3.2513,3.1732,3.1843,3.1852,3.1983,3.2013,3.2105,3.2141,3.2189,3.2229,3.2341,3.2407,3.2428,3.2473,3.2555,3.2629,3.2637,3.2668,3.2701,3.2705,3.2546,3.2525,3.2504,3.2478,3.2707,3.2708,3.2869,3.287,3.2872]},{"header":{"parameterUnit":"m.s-1","parameterCategory":1,"la1":30.2991,"la2":30.254,"lo1":-89.0895,"lo2":-89.0444,"dy":0.0017,"dx":0.0017,"nx":28,"ny":28,"refTime":"2026-02-04T09:00:00:Z","depth":0,"parameterNumber":3,"parameterNumberName":"V-component_of_WINDS"},"data":[0,0,0,0,0,0,0,0,0,0,0,0,0,0,0,0,0,0,0,0,0,0,0,0,0,0,0,0,0,0,0,0,0,0,0,0,0,0,0,0,0,0,0,0,0,0,0,0,0,0,0,0,0,0,0,0,0,0,-3.2344,-3.2347,0,-3.2566,-3.2568,-3.2571,-3.2588,-3.2585,-3.2583,-3.258,-3.2808,-3.2816,-3.2824,0,0,0,0,0,0,0,0,0,0,0,0,0,-3.1938,-3.1945,-3.2344,-3.2347,-3.235,-3.2565,-3.2568,-3.2571,-3.2588,-3.2585,-3.2582,-3.2579,-3.2805,-3.2815,-3.2825,0,0,0,0,0,0,0,0,0,0,0,0,0,-3.2132,-3.1948,-3.2344,-3.2384,-3.239,-3.2565,-3.2568,-3.2572,-3.2589,-3.2585,-3.2581,-3.2578,-3.2802,-3.2814,-3.2827,-3.2976,0,0,-3.2865,-3.287,0,0,0,0,0,0,0,0,-3.2121,-3.2147,-3.2375,-3.2382,-3.2388,-3.2545,-3.2508,-3.2708,-3.259,-3.2513,-3.258,-3.2576,-3.2724,-3.2742,-3.2792,-3.2987,-3.2997,-3.2866,-3.2873,-3.2879,-3.2882,0,0,0,0,0,0,0,-3.2108,-3.2138,-3.2432,-3.2379,-3.2387,-3.2392,-3.2415,-3.2546,-3.2636,-3.252,-3.2521,-3.2547,-3.2726,-3.278,-3.2797,-3.3,-3.2865,-3.2877,-3.2884,-3.2889,-3.3331,-3.3335,0,0,0,0,0,0,-3.2086,-3.2126,-3.2425,-3.2438,-3.2243,-3.2402,-3.2428,-3.2499,-3.2635,-3.2652,-3.255,-3.2547,-3.276,-3.2783,-3.2805,-3.2991,-3.2879,-3.289,-3.2898,-3.3326,-3.3332,-3.3336,0,0,0,0,0,0,-3.2078,-3.2113,-3.2416,-3.2283,-3.2322,-3.2413,-3.2492,-3.2505,-3.2558,-3.2658,-3.2674,-3.2588,-3.2758,-3.2788,-3.2934,-3.2999,-3.2896,-3.2907,-3.3321,-3.3328,-3.3334,-3.3362,0,0,0,0,0,0,-3.2066,-3.211,-3.2167,-3.2284,-3.2329,-3.254,-3.2496,-3.2512,-3.258,-3.2578,-3.2698,-3.2714,-3.2758,-3.2915,-3.2946,-3.3014,-3.2917,-3.3316,-3.3324,-3.3332,-3.3355,-3.3368,-3.3379,0,0,0,0,0,-3.2051,-3.2166,-3.217,-3.2206,-3.2403,-3.2544,-3.257,-3.2617,-3.2585,-3.2644,-3.2708,-3.271,-3.2986,-3.293,-3.2965,-3.3038,-3.3312,-3.3322,-3.3331,-3.335,-3.3366,-3.3379,0,0,0,0,0,0,-3.2055,-3.2182,-3.2188,-3.2344,-3.2433,-3.2547,-3.2622,-3.2632,-3.2733,-3.2727,-3.2782,-3.2809,-3.2954,-3.301,-3.2945,-3.319,-3.3146,-3.3163,-3.3148,-3.3164,-3.3175,-3.3159,-3.2927,0,0,0,0,0,-3.2074,-3.2177,-3.2283,-3.2411,-3.2455,-3.2531,-3.2594,-3.2623,-3.2718,-3.2756,-3.2831,-3.2923,-3.303,-3.31,-3.3205,-3.3364,-3.339,-3.3431,-3.3443,-3.3452,-3.3466,-3.3555,-3.3575,-3.3367,-3.3367,-3.3367,0,0,-3.2114,-3.2196,-3.2258,-3.2414,-3.2486,-3.2593,-3.2563,-3.2677,-3.2757,-3.2773,-3.2916,-3.2974,-3.3081,-3.3234,-3.3305,-3.3286,-3.3529,-3.3464,-3.3471,-3.348,-3.3567,-3.3587,-3.3604,-3.3374,-3.3373,-3.3372,0,0,-3.2242,-3.2314,-3.2429,-3.2502,-3.2612,-3.2662,-3.2689,-3.2802,-3.2841,-3.2985,-3.3,-3.3096,-3.328,-3.3355,-3.3418,-3.3575,-3.3581,-3.3607,-3.3669,-3.3756,-3.3772,-3.3787,-3.3843,-3.3863,-3.3621,-3.3621,-3.3621,0,-3.2278,-3.2439,-3.2486,-3.2601,-3.2669,-3.2688,-3.2805,-3.2874,-3.3013,-3.3059,-3.3035,-3.3267,-3.334,-3.3512,-3.355,-3.36,-3.3634,-3.3594,-3.3766,-3.3781,-3.3795,-3.385,-3.3871,-3.3623,-3.3623,-3.3623,-3.3623,0,-3.2478,-3.259,-3.2669,-3.2802,-3.2879,-3.2994,-3.306,-3.3132,-3.3154,-3.3207,-3.3353,-3.3442,-3.3565,-3.3608,-3.3631,-3.3783,-3.3768,-3.3754,-3.3711,-3.3817,-3.3869,-3.3891,-3.3627,-3.3626,-3.3625,-3.3625,0,0,-3.2615,-3.2773,-3.2801,-3.2862,-3.2985,-3.3072,-3.3188,-3.3308,-3.337,-3.3465,-3.3564,-3.3719,-3.3708,-3.3778,-3.381,-3.3886,-3.4005,-3.3863,-3.3866,-3.3887,-3.418,-3.419,-3.4213,-3.401,-3.4014,-3.4017,-3.4171,0,-3.2757,-3.2963,-3.301,-3.3188,-3.3292,-3.3312,-3.3413,-3.35,-3.3552,-3.3648,-3.3706,-3.3816,-3.3791,-3.3834,-3.391,-3.3975,-3.4065,-3.3964,-3.4104,-3.4108,-3.4077,-3.4241,-3.4252,-3.4392,-3.4192,-3.4195,-3.4198,0,-3.295,-3.305,-3.3238,-3.3347,-3.3393,-3.3483,-3.3597,-3.3688,-3.3787,-3.382,-3.3899,-3.3923,-3.4045,-3.3995,-3.4165,-3.4095,-3.4155,-3.4195,-3.4202,-3.4217,-3.416,-3.4261,-3.4438,-3.446,-3.4231,-3.4228,-3.4226,0,-3.3032,-3.3213,-3.3349,-3.34,-3.3531,-3.3594,-3.3652,-3.3747,-3.3816,-3.3916,-3.3962,-3.4075,-3.4137,-3.4224,-3.4278,-3.4236,-3.4444,-3.4398,-3.4475,-3.4474,-3.4518,-3.4515,-3.4708,-3.4556,-3.4555,-3.4555,-3.4554,0,-3.3186,-3.3301,-3.3387,-3.3471,-3.36,-3.3653,-3.3779,-3.3837,-3.3922,-3.4017,-3.4042,-3.4131,-3.4197,-3.4296,-3.4339,-3.4473,-3.4501,-3.4532,-3.4542,-3.453,-3.4526,-3.457,-3.4562,-3.4561,-3.4559,-3.4558,-3.4557,0,-3.33,-3.3362,-3.3512,-3.3623,-3.3654,-3.3745,-3.3841,-3.3923,-3.3975,-3.4097,-3.4128,-3.4211,-3.4329,-3.4391,-3.4539,-3.4568,-3.4719,-3.4723,-3.4685,-3.469,-3.4764,-3.4756,-3.4993,-3.5027,-3.4851,-3.4852,-3.4853,0,-3.3394,-3.3483,-3.3604,-3.367,-3.3729,-3.3834,-3.3905,-3.396,-3.4033,-3.4153,-3.4221,-3.434,-3.4438,-3.4626,-3.47,-3.4813,-3.482,-3.4896,-3.4838,-3.4823,-3.4823,-3.4817,-3.4827,-3.4906,-3.4907,-3.4909,-3.491,0,-3.3556,-3.3583,-3.3684,-3.3796,-3.388,-3.3971,-3.4061,-3.4113,-3.4184,-3.4264,-3.4385,-3.4461,-3.4612,-3.473,-3.4849,-3.4909,-3.4922,-3.4927,-3.4952,-3.4941,-3.4916,-3.4931,-3.4714,-3.4922,-3.4921,-3.492,-3.4919,-3.4919,-3.3664,-3.3744,-3.3842,-3.3954,-3.4027,-3.4111,-3.4194,-3.4257,-3.4358,-3.4485,-3.4511,-3.4639,-3.4736,-3.4897,-3.4961,-3.5062,-3.5047,-3.5081,-3.509,-3.5098,-3.5102,-3.4899,-3.5083,-3.5083,-3.5083,-3.5083,-3.5083,0,-3.3828,-3.3892,-3.3994,-3.4119,-3.4207,-3.4211,-3.4311,-3.4385,-3.4497,-3.4586,-3.4682,-3.4821,-3.4936,-3.5019,-3.5136,-3.5201,-3.521,-3.523,-3.5227,-3.524,-3.5108,-3.5076,-3.5221,-3.5221,-3.5221,-3.5221,-3.5221,-3.5221,-3.3923,-3.4059,-3.4097,-3.427,-3.4333,-3.4458,-3.4515,-3.4593,-3.4664,-3.4818,-3.4914,-3.4966,-3.5054,-3.5178,-3.5284,-3.5305,-3.5348,-3.5367,-3.5389,-3.5264,-3.525,-3.5236,-3.5206,-3.5376,-3.5376,-3.5514,-3.5515,-3.5516]}]]